Kuusamo, Finland

11:56 PM EEST on September 19, 2017 (GMT +0300)
Kuusamo

Weather History for EFKS - February, 2013

Change the Weather History Date:

Thursday, February 14, 2013

  Actual Average Record
Temperature  
Mean Temperature 24 °F -  
Max Temperature 24 °F - - ()
Min Temperature 23 °F - - ()
Degree Days  
Heating Degree Days 42    
Moisture  
Dew Point 23 °F    
Average Humidity 98    
Maximum Humidity 100    
Minimum Humidity 93    
Precipitation  
Precipitation 0.00 in 0.04 in - ()
Sea Level Pressure  
Sea Level Pressure 30.44 in    
Wind  
Wind Speed 7 mph ()    
Max Wind Speed 10 mph    
Max Gust Speed -    
Visibility 5.3 miles    
Events Snow    
T = Trace of Precipitation, MM = Missing Value Source: Averaged Metar Reports

Daily Weather History Graph

Daily Weather History Graph

Search for Another Location

Airport or City:

Trip Planner

Search our weather history database for the weather conditions in past years. The results will help you decide how hot, cold, wet, or windy it might be!

Date:

Astronomy

Feb. 14, 2013 Rise Set
Actual Time 8:11 AM EET 4:24 PM EET
Civil Twilight 7:16 AM EET 5:20 PM EET
Nautical Twilight 6:15 AM EET 6:20 PM EET
Astronomical Twilight 5:16 AM EET 7:19 PM EET
Moon 7:56 AM EET (2/14) 11:31 PM EET (2/14)
Length of Visible Light 10h 04m
Length of Day
8h 12m
Waxing Crescent, 19% of the Moon is Illuminated
Feb 14
Waxing Crescent
Feb 17
First Quarter
Feb 25
Full
Mar 4
Last Quarter
Mar 11
New

Hourly Weather History & Observations

Time (EET) Temp. Windchill Dew Point Humidity Pressure Visibility Wind Dir Wind Speed Gust Speed Precip Events Conditions
12:20 AM 24.8 °F 16.1 °F 24.8 °F 100% 30.54 in 6.2 mi SSE 8.1 mph - N/A   Overcast
12:50 AM 24.8 °F 16.1 °F 24.8 °F 100% 30.54 in 6.2 mi SSE 8.1 mph - N/A   Overcast
1:20 AM 24.8 °F 16.1 °F 24.8 °F 100% 30.54 in 6.2 mi SSE 8.1 mph - N/A   Overcast
1:50 AM 24.8 °F 16.1 °F 24.8 °F 100% 30.54 in 6.2 mi SSE 8.1 mph - N/A   Overcast
2:20 AM 24.8 °F 16.1 °F 24.8 °F 100% 30.51 in 6.2 mi SSE 8.1 mph - N/A   Overcast
2:50 AM 24.8 °F 16.9 °F 24.8 °F 100% 30.51 in 6.2 mi SSE 6.9 mph - N/A Snow Light Snow Showers
3:20 AM 24.8 °F 16.9 °F 24.8 °F 100% 30.51 in 6.2 mi SSE 6.9 mph - N/A Snow Light Snow Showers
3:50 AM 24.8 °F 17.9 °F 24.8 °F 100% 30.51 in 6.2 mi SSE 5.8 mph - N/A Snow Light Snow
4:20 AM 24.8 °F 16.9 °F 24.8 °F 100% 30.51 in 6.2 mi SSE 6.9 mph - N/A   Overcast
4:50 AM 24.8 °F 16.9 °F 23.0 °F 93% 30.48 in 6.2 mi South 6.9 mph - N/A   Overcast
5:20 AM 24.8 °F 16.1 °F 23.0 °F 93% 30.48 in 6.2 mi SSE 8.1 mph - N/A   Overcast
5:50 AM 24.8 °F 16.1 °F 23.0 °F 93% 30.48 in 6.2 mi SSE 8.1 mph - N/A   Overcast
6:20 AM 24.8 °F 14.6 °F 23.0 °F 93% 30.48 in 6.2 mi South 10.4 mph - N/A   Overcast
6:50 AM 24.8 °F 14.6 °F 23.0 °F 93% 30.48 in 6.2 mi South 10.4 mph - N/A   Overcast
7:20 AM 23.0 °F 13.1 °F 23.0 °F 100% 30.48 in 6.2 mi SSE 9.2 mph - N/A   Overcast
7:50 AM 23.0 °F 12.4 °F 23.0 °F 100% 30.45 in 6.2 mi SSE 10.4 mph - N/A   Overcast
8:20 AM 23.0 °F 12.4 °F 23.0 °F 100% 30.45 in 6.2 mi South 10.4 mph - N/A   Overcast
8:50 AM 23.0 °F 12.4 °F 21.2 °F 93% 30.45 in 5.0 mi SSE 10.4 mph - N/A   Overcast
9:20 AM 23.0 °F 13.1 °F 21.2 °F 93% 30.45 in 3.7 mi South 9.2 mph - N/A   Overcast
9:50 AM 23.0 °F 13.1 °F 21.2 °F 93% 30.45 in 3.7 mi South 9.2 mph - N/A   Overcast
10:20 AM 23.0 °F 13.1 °F 21.2 °F 93% 30.45 in 2.5 mi South 9.2 mph - N/A   Overcast
10:50 AM 23.0 °F 13.1 °F 21.2 °F 93% 30.45 in 3.7 mi SSE 9.2 mph - N/A Snow Light Snow Grains
11:20 AM 23.0 °F 13.1 °F 21.2 °F 93% 30.45 in 5.6 mi South 9.2 mph - N/A Snow Light Snow Grains
11:50 AM 23.0 °F 13.9 °F 21.2 °F 93% 30.45 in 6.2 mi South 8.1 mph - N/A Snow Light Snow Grains
12:20 PM 23.0 °F 14.7 °F 21.2 °F 93% 30.45 in 3.7 mi South 6.9 mph - N/A Snow Light Snow Grains
12:50 PM 23.0 °F 15.8 °F 23.0 °F 100% 30.45 in 5.0 mi South 5.8 mph - N/A Snow Light Snow Grains
1:20 PM 23.0 °F 15.8 °F 23.0 °F 100% 30.45 in 6.2 mi South 5.8 mph - N/A Snow Light Snow Grains
1:50 PM 23.0 °F 14.7 °F 23.0 °F 100% 30.42 in 6.2 mi South 6.9 mph - N/A Snow Light Snow Grains
2:20 PM 23.0 °F 13.9 °F 23.0 °F 100% 30.42 in 6.2 mi South 8.1 mph - N/A   Overcast
2:50 PM 23.0 °F 13.9 °F 23.0 °F 100% 30.42 in 6.2 mi South 8.1 mph - N/A Snow Light Snow
3:20 PM 23.0 °F 14.7 °F 23.0 °F 100% 30.39 in 6.2 mi South 6.9 mph - N/A Snow Light Snow Grains
3:39 PM 23.0 °F 14.7 °F 23.0 °F 100% 30.39 in 6.2 mi South 6.9 mph - N/A Snow Light Snow
3:50 PM 23.0 °F 13.9 °F 23.0 °F 100% 30.39 in 6.2 mi South 8.1 mph - N/A Snow Light Snow
4:36 PM 23.0 °F 15.8 °F 23.0 °F 100% 30.39 in 6.2 mi South 5.8 mph - N/A Snow Light Snow
5:20 PM 23.0 °F 15.8 °F 23.0 °F 100% 30.39 in 5.6 mi South 5.8 mph - N/A Snow Light Snow Grains
5:50 PM 23.0 °F 18.4 °F 23.0 °F 100% 30.39 in 1.5 mi South 3.5 mph - N/A Snow Light Snow
6:33 PM 23.0 °F 15.8 °F 23.0 °F 100% 30.39 in 1.5 mi SSE 5.8 mph - N/A Snow Light Snow
6:50 PM 23.0 °F 17.0 °F 23.0 °F 100% 30.39 in 1.7 mi SSE 4.6 mph - N/A Snow Light Snow
7:20 PM 23.0 °F - 23.0 °F 100% 30.39 in 1.4 mi SSE 2.3 mph - N/A Snow Light Snow
7:50 PM 23.0 °F - 23.0 °F 100% 30.36 in 6.2 mi SSE 1.2 mph - N/A Snow Light Snow
8:20 PM 23.0 °F - 21.2 °F 93% 30.36 in 6.2 mi SSE 2.3 mph - N/A Snow Light Snow
8:50 PM 23.0 °F 18.4 °F 21.2 °F 93% 30.36 in 3.7 mi SSE 3.5 mph - N/A Snow Light Snow
9:20 PM 23.0 °F 18.4 °F 23.0 °F 100% 30.36 in 6.2 mi SSE 3.5 mph - N/A Snow Light Snow
9:50 PM 23.0 °F 18.4 °F 23.0 °F 100% 30.36 in 6.2 mi SSE 3.5 mph - N/A Snow Light Snow
10:20 PM 23.0 °F 17.0 °F 23.0 °F 100% 30.36 in 6.2 mi SSE 4.6 mph - N/A Snow Light Snow
10:50 PM 23.0 °F 18.4 °F 23.0 °F 100% 30.33 in 6.2 mi SSE 3.5 mph - N/A Snow Light Snow
11:20 PM 23.0 °F 17.0 °F 21.2 °F 93% 30.33 in 5.0 mi SSE 4.6 mph - N/A Snow Light Snow
11:50 PM 23.0 °F 17.0 °F 21.2 °F 93% 30.33 in 4.3 mi South 4.6 mph - N/A Snow Light Snow